ICE532 BIKF-EDDM

Flight info

Callsign ICE532
Flight time N/A
Altitude 35000
Route OSKUM3C OSKUM DCT RATSU/N0447F350 DCT BARKU DCT SMOKI DCT UPNAL DCT ROLUM DCT TOPPA DCT AMGOD DCT PETIK P62 PAM DCT OTMEC DCT MISGO DCT DOJOH DCT DODEN/N0452F330 DCT TABUM DCT BOMBI T104 HAREM/N0423F270 T104 ROKIL ROKIL1A
Aircraft A21N/M-SDE2E3FGHIRWXY/LB1

Departure

Time 2026-04-27 16:21
Airport Keflavik International Airport (BIKF)

Arrival

Time N/A
Airport Munich Airport (EDDM)
Time Latitude Longitude Altitude Speed Heading
2026-04-27 16:02 63.99284 -22.62203 142 ft 0 kts 320°
2026-04-27 16:12 63.99269 -22.62166 142 ft 2 kts 297°
2026-04-27 16:12 63.99263 -22.62135 142 ft 2 kts 282°
2026-04-27 16:12 63.99265 -22.62069 142 ft 2 kts 249°
2026-04-27 16:13 63.99272 -22.62039 142 ft 2 kts 233°
2026-04-27 16:13 63.99288 -22.62006 142 ft 2 kts 208°
2026-04-27 16:13 63.99302 -22.61994 142 ft 2 kts 192°
2026-04-27 16:14 63.99313 -22.61991 142 ft 0 kts 184°
2026-04-27 16:16 63.99294 -22.61995 142 ft 5 kts 185°
2026-04-27 16:16 63.99173 -22.61943 142 ft 9 kts 100°
2026-04-27 16:17 63.99173 -22.61719 142 ft 4 kts 91°
2026-04-27 16:17 63.99173 -22.61603 142 ft 4 kts 90°
2026-04-27 16:18 63.99175 -22.61321 142 ft 8 kts 92°
2026-04-27 16:18 63.99172 -22.61174 145 ft 6 kts 90°
2026-04-27 16:19 63.99173 -22.61000 145 ft 16 kts 89°
2026-04-27 16:19 63.99172 -22.60741 145 ft 15 kts 89°
2026-04-27 16:20 63.99100 -22.60550 146 ft 4 kts 179°
2026-04-27 16:20 63.99023 -22.60550 148 ft 33 kts 179°
2026-04-27 16:20 63.97743 -22.60550 301 ft 131 kts 177°
2026-04-27 16:21 63.96860 -22.60599 937 ft 127 kts 178°
2026-04-27 16:21 63.95016 -22.57449 2491 ft 146 kts 123°
2026-04-27 16:22 63.94631 -22.55213 2805 ft 158 kts 124°
2026-04-27 16:22 63.93556 -22.50478 3503 ft 184 kts 130°
2026-04-27 16:22 63.92945 -22.47820 3875 ft 199 kts 127°
2026-04-27 16:23 63.92334 -22.44815 4182 ft 222 kts 122°
2026-04-27 16:23 63.91069 -22.37841 5027 ft 255 kts 121°
2026-04-27 16:23 63.90380 -22.34094 5607 ft 260 kts 122°
2026-04-27 16:24 63.89695 -22.30317 6160 ft 260 kts 123°
2026-04-27 16:24 63.88145 -22.22693 7307 ft 276 kts 123°
2026-04-27 16:25 63.86612 -22.14862 9097 ft 272 kts 124°
2026-04-27 16:25 63.85033 -22.07003 10317 ft 285 kts 126°
2026-04-27 16:26 63.83598 -21.97943 10936 ft 331 kts 112°
2026-04-27 16:26 63.82910 -21.87107 11604 ft 365 kts 105°
2026-04-27 16:27 63.82315 -21.75610 12795 ft 374 kts 105°
2026-04-27 16:27 63.81309 -21.57817 14385 ft 390 kts 106°
2026-04-27 16:28 63.80599 -21.45591 15508 ft 396 kts 106°
2026-04-27 16:28 63.79864 -21.33158 16508 ft 405 kts 107°
2026-04-27 16:29 63.78725 -21.14203 17999 ft 414 kts 107°
2026-04-27 16:30 63.77866 -21.01254 18886 ft 418 kts 110°
2026-04-27 16:30 63.76499 -20.88629 19769 ft 419 kts 115°
2026-04-27 16:31 63.74214 -20.69402 20954 ft 429 kts 114°
2026-04-27 16:31 63.72658 -20.56356 21757 ft 435 kts 114°
2026-04-27 16:32 63.70903 -20.43397 22464 ft 435 kts 120°
2026-04-27 16:32 63.69766 -20.37102 22859 ft 432 kts 123°
2026-04-27 16:33 63.67252 -20.24767 23620 ft 435 kts 125°
2026-04-27 16:33 63.65995 -20.18658 23968 ft 437 kts 125°
2026-04-27 16:33 63.64717 -20.12456 24292 ft 440 kts 124°
2026-04-27 16:33 63.63432 -20.06225 24624 ft 442 kts 124°
2026-04-27 16:34 63.62124 -19.99900 24914 ft 445 kts 124°
2026-04-27 16:34 63.60825 -19.93626 25213 ft 447 kts 124°
2026-04-27 16:34 63.59524 -19.87364 25525 ft 449 kts 124°
2026-04-27 16:34 63.58193 -19.80967 25832 ft 451 kts 124°
2026-04-27 16:35 63.56878 -19.74670 26070 ft 455 kts 123°
2026-04-27 16:35 63.55530 -19.68234 26376 ft 456 kts 123°
2026-04-27 16:35 63.52823 -19.55370 26902 ft 461 kts 124°
2026-04-27 16:36 63.51463 -19.48932 27144 ft 463 kts 123°
2026-04-27 16:36 63.50081 -19.42421 27429 ft 464 kts 123°
2026-04-27 16:36 63.48688 -19.35883 27673 ft 466 kts 123°
2026-04-27 16:36 63.47301 -19.29374 27919 ft 468 kts 124°
2026-04-27 16:37 63.45905 -19.22842 28189 ft 469 kts 124°
2026-04-27 16:37 63.44508 -19.16338 28409 ft 471 kts 124°
2026-04-27 16:37 63.43090 -19.09756 28772 ft 470 kts 123°
2026-04-27 16:37 63.41685 -19.03241 29154 ft 468 kts 123°
2026-04-27 16:38 63.40276 -18.96724 29528 ft 467 kts 123°
2026-04-27 16:38 63.38878 -18.90285 29934 ft 464 kts 123°
2026-04-27 16:38 63.37474 -18.83843 30293 ft 463 kts 123°
2026-04-27 16:38 63.36062 -18.77387 30602 ft 464 kts 123°
2026-04-27 16:39 63.34648 -18.70943 30927 ft 464 kts 123°
2026-04-27 16:39 63.33248 -18.64573 31230 ft 464 kts 123°
2026-04-27 16:39 63.31824 -18.58119 31540 ft 464 kts 123°
2026-04-27 16:39 63.30424 -18.51795 31898 ft 463 kts 123°
2026-04-27 16:40 63.28997 -18.45364 32216 ft 463 kts 123°
2026-04-27 16:40 63.27567 -18.38951 32492 ft 464 kts 123°
2026-04-27 16:40 63.26144 -18.32572 32779 ft 464 kts 124°
2026-04-27 16:40 63.24724 -18.26234 33091 ft 464 kts 125°
2026-04-27 16:41 63.23294 -18.19861 33385 ft 463 kts 124°
2026-04-27 16:41 63.21849 -18.13462 33620 ft 464 kts 124°
2026-04-27 16:41 63.20410 -18.07101 33822 ft 466 kts 124°
2026-04-27 16:41 63.18959 -18.00702 34012 ft 468 kts 124°
2026-04-27 16:42 63.17495 -17.94268 34210 ft 470 kts 124°
2026-04-27 16:42 63.16029 -17.87834 34418 ft 471 kts 124°
2026-04-27 16:42 63.14570 -17.81464 34671 ft 471 kts 124°
2026-04-27 16:42 63.13081 -17.74974 34915 ft 471 kts 124°
2026-04-27 16:43 63.11608 -17.68582 35024 ft 474 kts 124°
2026-04-27 16:43 63.08621 -17.55659 35028 ft 474 kts 123°
2026-04-27 16:44 63.05641 -17.42836 35033 ft 473 kts 123°
2026-04-27 16:44 63.02642 -17.30010 35037 ft 472 kts 124°
2026-04-27 16:45 62.99649 -17.17278 35038 ft 471 kts 124°
2026-04-27 16:45 62.96624 -17.04499 35036 ft 472 kts 124°
2026-04-27 16:46 62.93605 -16.91821 35059 ft 472 kts 123°
2026-04-27 16:46 62.90564 -16.79120 35062 ft 472 kts 123°
2026-04-27 16:47 62.87525 -16.66502 35058 ft 473 kts 123°
2026-04-27 16:47 62.84455 -16.53835 35074 ft 474 kts 123°
2026-04-27 16:48 62.81368 -16.41162 35075 ft 473 kts 123°
2026-04-27 16:48 62.78275 -16.28532 35065 ft 472 kts 124°
2026-04-27 16:49 62.73630 -16.09723 35073 ft 472 kts 123°
2026-04-27 16:49 62.70533 -15.97257 35076 ft 471 kts 123°
2026-04-27 16:50 62.67412 -15.84771 35090 ft 471 kts 123°
2026-04-27 16:50 62.64275 -15.72302 35095 ft 472 kts 123°
2026-04-27 16:51 62.61129 -15.59860 35107 ft 473 kts 123°
2026-04-27 16:51 62.57963 -15.47408 35116 ft 474 kts 123°
2026-04-27 16:52 62.54778 -15.34952 35117 ft 474 kts 123°
2026-04-27 16:52 62.51585 -15.22527 35121 ft 474 kts 123°
2026-04-27 16:53 62.48397 -15.10204 35127 ft 474 kts 123°
2026-04-27 16:53 62.45178 -14.97825 35131 ft 474 kts 123°
2026-04-27 16:54 62.41936 -14.85425 35143 ft 475 kts 123°
2026-04-27 16:54 62.38712 -14.73157 35148 ft 474 kts 123°
2026-04-27 16:55 62.35448 -14.60809 35148 ft 475 kts 123°
2026-04-27 16:55 62.32205 -14.48605 35155 ft 475 kts 123°
2026-04-27 16:56 62.28924 -14.36337 35158 ft 476 kts 122°
2026-04-27 16:56 62.25623 -14.24048 35163 ft 475 kts 123°
2026-04-27 16:57 62.22330 -14.11859 35164 ft 475 kts 123°
2026-04-27 16:57 62.19017 -13.99666 35170 ft 476 kts 123°
2026-04-27 16:58 62.15679 -13.87443 35168 ft 478 kts 123°
2026-04-27 16:58 62.12347 -13.75318 35177 ft 479 kts 123°
2026-04-27 16:59 62.08980 -13.63124 35179 ft 479 kts 123°
2026-04-27 16:59 62.05598 -13.50940 35180 ft 480 kts 122°
2026-04-27 17:00 62.00505 -13.32714 35184 ft 481 kts 123°
2026-04-27 17:01 61.97068 -13.20504 35190 ft 482 kts 123°
2026-04-27 17:01 61.93646 -13.08408 35191 ft 482 kts 123°
2026-04-27 17:02 61.90192 -12.96259 35197 ft 482 kts 123°
2026-04-27 17:02 61.86750 -12.84225 35205 ft 481 kts 123°
2026-04-27 17:03 61.83290 -12.72191 35214 ft 481 kts 123°
2026-04-27 17:03 61.79808 -12.60141 35218 ft 481 kts 122°
2026-04-27 17:04 61.76322 -12.48139 35224 ft 481 kts 122°
2026-04-27 17:04 61.72839 -12.36207 35230 ft 481 kts 122°
2026-04-27 17:05 61.69334 -12.24268 35235 ft 481 kts 123°
2026-04-27 17:05 61.65822 -12.12365 35238 ft 481 kts 123°
2026-04-27 17:06 61.62307 -12.00521 35246 ft 481 kts 123°
2026-04-27 17:06 61.58772 -11.88669 35258 ft 481 kts 123°
2026-04-27 17:07 61.55203 -11.76762 35359 ft 484 kts 123°
2026-04-27 17:07 61.53425 -11.70858 35689 ft 483 kts 123°
2026-04-27 17:07 61.51648 -11.64967 36069 ft 480 kts 122°
2026-04-27 17:07 61.49872 -11.59095 36423 ft 479 kts 122°
2026-04-27 17:08 61.48101 -11.53258 36733 ft 477 kts 122°
2026-04-27 17:08 61.46328 -11.47424 37020 ft 476 kts 122°
2026-04-27 17:08 61.44554 -11.41599 37262 ft 475 kts 122°
2026-04-27 17:09 61.41035 -11.30096 37274 ft 474 kts 123°
2026-04-27 17:09 61.37472 -11.18509 37281 ft 475 kts 123°
2026-04-27 17:10 61.33921 -11.07012 37287 ft 475 kts 123°
2026-04-27 17:10 61.30345 -10.95496 37291 ft 475 kts 122°
2026-04-27 17:11 61.26790 -10.84107 37293 ft 475 kts 122°
2026-04-27 17:11 61.21385 -10.66897 37294 ft 476 kts 122°
2026-04-27 17:12 61.15973 -10.49787 37298 ft 475 kts 122°
2026-04-27 17:13 61.12374 -10.38480 37297 ft 475 kts 122°
2026-04-27 17:13 61.08727 -10.27075 37302 ft 475 kts 123°
2026-04-27 17:14 61.05104 -10.15821 37307 ft 475 kts 123°
2026-04-27 17:14 61.01112 -10.05055 37319 ft 475 kts 130°
2026-04-27 17:15 60.96480 -9.95345 37320 ft 476 kts 138°
2026-04-27 17:15 60.91347 -9.86955 37328 ft 476 kts 144°
2026-04-27 17:16 60.86003 -9.78982 37167 ft 475 kts 144°
2026-04-27 17:16 60.83327 -9.74976 37283 ft 478 kts 143°
2026-04-27 17:16 60.80673 -9.71001 37315 ft 479 kts 143°
2026-04-27 17:17 60.75314 -9.62985 37326 ft 478 kts 143°
2026-04-27 17:17 60.69951 -9.55002 37327 ft 480 kts 143°
2026-04-27 17:18 60.62140 -9.42427 37328 ft 480 kts 136°
2026-04-27 17:18 60.57577 -9.32714 37330 ft 479 kts 129°
2026-04-27 17:19 60.53552 -9.21966 37334 ft 477 kts 124°
2026-04-27 17:19 60.49688 -9.11177 37338 ft 478 kts 124°
2026-04-27 17:20 60.45778 -9.00365 37343 ft 478 kts 124°
2026-04-27 17:20 60.41849 -8.89579 37349 ft 478 kts 124°
2026-04-27 17:21 60.37916 -8.78838 37352 ft 479 kts 124°
2026-04-27 17:21 60.33961 -8.68088 37352 ft 478 kts 124°
2026-04-27 17:22 60.29990 -8.57347 37354 ft 478 kts 124°
2026-04-27 17:22 60.26038 -8.46708 37355 ft 479 kts 123°
2026-04-27 17:23 60.22060 -8.36044 37356 ft 479 kts 123°
2026-04-27 17:23 60.18071 -8.25395 37355 ft 479 kts 124°
2026-04-27 17:24 60.14080 -8.14795 37358 ft 479 kts 124°
2026-04-27 17:24 60.10071 -8.04198 37358 ft 479 kts 124°
2026-04-27 17:25 60.06034 -7.93579 37360 ft 479 kts 124°
2026-04-27 17:25 60.02027 -7.83076 37361 ft 478 kts 124°
2026-04-27 17:26 59.97995 -7.72556 37364 ft 478 kts 124°
2026-04-27 17:26 59.93986 -7.62152 37369 ft 478 kts 123°
2026-04-27 17:27 59.89950 -7.51715 37373 ft 479 kts 123°
2026-04-27 17:27 59.85887 -7.41262 37377 ft 479 kts 123°
2026-04-27 17:28 59.81823 -7.30842 37379 ft 479 kts 124°
2026-04-27 17:29 59.75703 -7.15250 37383 ft 479 kts 124°
2026-04-27 17:29 59.71623 -7.04915 37384 ft 479 kts 124°
2026-04-27 17:30 59.67526 -6.94587 37388 ft 479 kts 123°
2026-04-27 17:30 59.61373 -6.79147 37389 ft 479 kts 123°
2026-04-27 17:31 59.57293 -6.68964 37390 ft 478 kts 123°
2026-04-27 17:31 59.53170 -6.58727 37392 ft 478 kts 123°
2026-04-27 17:32 59.46969 -6.43405 37390 ft 478 kts 123°
2026-04-27 17:33 59.42836 -6.33252 37389 ft 478 kts 124°
2026-04-27 17:33 59.38697 -6.23127 37391 ft 479 kts 124°
2026-04-27 17:34 59.34547 -6.13018 37395 ft 478 kts 124°
2026-04-27 17:34 59.30402 -6.02967 37386 ft 478 kts 124°
2026-04-27 17:35 59.26218 -5.92862 37373 ft 478 kts 123°
2026-04-27 17:35 59.22065 -5.82874 37373 ft 478 kts 123°
2026-04-27 17:36 59.17882 -5.72862 37370 ft 478 kts 123°
2026-04-27 17:36 59.13698 -5.62884 37377 ft 479 kts 123°
2026-04-27 17:37 59.09478 -5.52871 37376 ft 478 kts 123°
2026-04-27 17:37 59.05286 -5.42958 37375 ft 479 kts 123°
2026-04-27 17:38 59.01783 -5.34718 37372 ft 478 kts 124°